| time (UTC) | temp F | wind direction | speed MPH | gust MPH | rain 1hr in | rain 24hr in | rain mn in | humidity % | barometer mb |
| 20260831010953 | 76 | 159 | 1.0 | 2.0 | 0.00 | 0.00 | 0.00 | 89 | 1040.8 |
| 20260831010453 | 76 | 133 | 3.0 | 3.0 | 0.00 | 0.00 | 0.00 | 89 | 1040.7 |
| 20260831005949 | 76 | 150 | 0.0 | 3.0 | 0.00 | 0.00 | 0.00 | 88 | 1040.6 |
| 20260831005445 | 76 | 148 | 1.0 | 1.0 | 0.00 | 0.00 | 0.00 | 88 | 1040.8 |
| 20260831004944 | 76 | 151 | 2.0 | 3.0 | 0.00 | 0.00 | 0.00 | 88 | 1040.8 |
| 20260831004440 | 76 | 143 | 1.0 | 3.0 | 0.00 | 0.00 | 0.00 | 88 | 1041.0 |
| 20260831003936 | 76 | 138 | 0.0 | 3.0 | 0.00 | 0.00 | 0.00 | 88 | 1041.0 |
| 20260831003432 | 77 | 155 | 1.0 | 1.0 | 0.00 | 0.00 | 0.00 | 88 | 1041.0 |
| 20260831002931 | 77 | 128 | 1.0 | 2.0 | 0.00 | 0.00 | 0.00 | 87 | 1040.8 |
| 20260831002430 | 77 | 137 | 0.0 | 2.0 | 0.00 | 0.00 | 0.00 | 87 | 1041.0 |
| 20260831001926 | 77 | 146 | 1.0 | 2.0 | 0.00 | 0.00 | 0.00 | 86 | 1041.1 |
| 20260831001421 | 77 | 146 | 1.0 | 2.0 | 0.00 | 0.00 | 0.00 | 86 | 1041.0 |
| 20260831000919 | 77 | 321 | 2.0 | 3.0 | 0.00 | 0.00 | 0.00 | 86 | 1040.7 |
| 20260831000414 | 78 | 150 | 0.0 | 1.0 | 0.00 | 0.00 | 0.00 | 86 | 1041.0 |
| 20260830235912 | 78 | 145 | 1.0 | 5.0 | 0.00 | 0.00 | 0.00 | 85 | 1041.1 |
| 20260830235407 | 78 | 119 | 0.0 | 2.0 | 0.00 | 0.00 | 0.00 | 85 | 1041.2 |
| 20260830234903 | 78 | 90 | 2.0 | 2.0 | 0.00 | 0.00 | 0.00 | 85 | 1041.2 |
| 20260830234357 | 78 | 149 | 1.0 | 2.0 | 0.00 | 0.00 | 0.00 | 84 | 1040.9 |
| 20260830233854 | 78 | 134 | 1.0 | 5.0 | 0.00 | 0.00 | 0.00 | 84 | 1041.1 |
| 20260830233349 | 78 | 158 | 1.0 | 3.0 | 0.00 | 0.00 | 0.00 | 84 | 1041.1 |
| 20260830232844 | 79 | 61 | 5.0 | 8.0 | 0.00 | 0.00 | 0.00 | 83 | 1041.0 |
| 20260830232340 | 79 | 207 | 2.0 | 3.0 | 0.00 | 0.00 | 0.00 | 82 | 1040.9 |
| 20260830231836 | 79 | 146 | 1.0 | 3.0 | 0.00 | 0.00 | 0.00 | 82 | 1040.8 |
| 20260830231331 | 80 | 352 | 4.0 | 6.0 | 0.00 | 0.00 | 0.00 | 81 | 1041.0 |
| 20260830230830 | 80 | 139 | 0.0 | 3.0 | 0.00 | 0.00 | 0.00 | 82 | 1040.8 |
| 20260830230325 | 80 | 134 | 0.0 | 3.0 | 0.00 | 0.00 | 0.00 | 82 | 1040.9 |
| 20260830225820 | 80 | 64 | 2.0 | 2.0 | 0.00 | 0.00 | 0.00 | 82 | 1040.9 |
| 20260830225315 | 79 | 151 | 2.0 | 3.0 | 0.00 | 0.00 | 0.00 | 82 | 1041.0 |
| 20260830224814 | 79 | 160 | 2.0 | 5.0 | 0.00 | 0.00 | 0.00 | 82 | 1041.1 |
| 20260830224308 | 79 | 143 | 0.0 | 6.0 | 0.00 | 0.00 | 0.00 | 82 | 1040.9 |
| 20260830223806 | 80 | 65 | 3.0 | 3.0 | 0.00 | 0.00 | 0.00 | 81 | 1041.0 |
| 20260830223301 | 79 | 148 | 0.0 | 5.0 | 0.00 | 0.00 | 0.00 | 82 | 1041.2 |
| 20260830222755 | 79 | 186 | 2.0 | 2.0 | 0.00 | 0.00 | 0.00 | 82 | 1041.2 |
| 20260830222251 | 79 | 89 | 1.0 | 3.0 | 0.00 | 0.00 | 0.00 | 82 | 1041.5 |
| 20260830221746 | 79 | 196 | 1.0 | 6.0 | 0.00 | 0.00 | 0.00 | 83 | 1041.2 |
| 20260830221243 | 80 | 77 | 2.0 | 6.0 | 0.00 | 0.00 | 0.00 | 81 | 1041.4 |
| 20260830220738 | 80 | 173 | 2.0 | 2.0 | 0.00 | 0.00 | 0.00 | 80 | 1041.1 |
| 20260830220237 | 80 | 132 | 0.0 | 1.0 | 0.00 | 0.00 | 0.00 | 82 | 1041.4 |
| 20260830215735 | 80 | 125 | 5.0 | 6.0 | 0.00 | 0.00 | 0.00 | 80 | 1041.5 |
| 20260830215230 | 80 | 62 | 4.0 | 6.0 | 0.00 | 0.00 | 0.00 | 80 | 1041.4 |
| 20260830214726 | 79 | 114 | 0.0 | 2.0 | 0.00 | 0.00 | 0.00 | 81 | 1041.2 |
| 20260830214225 | 79 | 152 | 2.0 | 5.0 | 0.00 | 0.00 | 0.00 | 81 | 1041.6 |
| 20260830213724 | 79 | 143 | 3.0 | 6.0 | 0.00 | 0.00 | 0.00 | 80 | 1041.4 |
| 20260830213220 | 80 | 151 | 1.0 | 2.0 | 0.00 | 0.00 | 0.00 | 81 | 1041.6 |
| 20260830212716 | 80 | 155 | 1.0 | 3.0 | 0.00 | 0.00 | 0.00 | 79 | 1041.5 |
| 20260830212211 | 81 | 160 | 1.0 | 2.0 | 0.00 | 0.00 | 0.00 | 78 | 1041.4 |
| 20260830211706 | 81 | 165 | 3.0 | 5.0 | 0.00 | 0.00 | 0.00 | 77 | 1041.3 |
| 20260830211205 | 81 | 59 | 1.0 | 3.0 | 0.00 | 0.00 | 0.00 | 78 | 1041.0 |
| 20260830210701 | 82 | 152 | 5.0 | 8.0 | 0.00 | 0.00 | 0.00 | 77 | 1041.2 |
| 20260830210200 | 82 | 182 | 1.0 | 3.0 | 0.00 | 0.00 | 0.00 | 76 | 1041.0 |
| 20260830205657 | 80 | 135 | 0.0 | 3.0 | 0.00 | 0.00 | 0.00 | 80 | 1040.8 |
| 20260830205152 | 80 | 176 | 2.0 | 5.0 | 0.00 | 0.00 | 0.00 | 79 | 1041.1 |
| 20260830204652 | 79 | 119 | 1.0 | 5.0 | 0.00 | 0.00 | 0.00 | 80 | 1041.2 |
| 20260830204151 | 80 | 168 | 0.0 | 2.0 | 0.00 | 0.00 | 0.00 | 79 | 1041.5 |
| 20260830203648 | 79 | 101 | 0.0 | 1.0 | 0.00 | 0.00 | 0.00 | 80 | 1041.2 |
| 20260830203143 | 80 | 140 | 1.0 | 3.0 | 0.00 | 0.00 | 0.00 | 79 | 1041.4 |
| 20260830202642 | 81 | 149 | 1.0 | 3.0 | 0.00 | 0.00 | 0.00 | 78 | 1041.6 |
| 20260830202137 | 80 | 292 | 2.0 | 8.0 | 0.00 | 0.00 | 0.00 | 79 | 1041.6 |
| 20260830201637 | 80 | 190 | 3.0 | 6.0 | 0.00 | 0.00 | 0.00 | 78 | 1041.5 |
| 20260830201132 | 79 | 153 | 3.0 | 7.0 | 0.00 | 0.00 | 0.00 | 80 | 1041.4 |
| 20260830200627 | 79 | 204 | 2.0 | 2.0 | 0.00 | 0.00 | 0.00 | 80 | 1041.4 |
| 20260830200122 | 79 | 157 | 4.0 | 5.0 | 0.00 | 0.00 | 0.00 | 79 | 1041.6 |
| 20260830195617 | 80 | 64 | 2.0 | 5.0 | 0.00 | 0.00 | 0.00 | 80 | 1041.7 |
| 20260830195115 | 79 | 153 | 0.0 | 1.0 | 0.00 | 0.00 | 0.00 | 81 | 1041.8 |
| 20260830194614 | 79 | 50 | 1.0 | 1.0 | 0.00 | 0.00 | 0.00 | 82 | 1042.1 |
| 20260830194109 | 79 | 183 | 3.0 | 5.0 | 0.00 | 0.00 | 0.00 | 81 | 1042.1 |
| 20260830193609 | 78 | 188 | 0.0 | 5.0 | 0.00 | 0.00 | 0.00 | 82 | 1042.4 |
| 20260830193103 | 77 | 59 | 2.0 | 2.0 | 0.00 | 0.00 | 0.00 | 84 | 1042.5 |
| 20260830192554 | 77 | 156 | 1.0 | 1.0 | 0.00 | 0.00 | 0.00 | 83 | 1042.6 |
| 20260830192053 | 77 | 142 | 0.0 | 3.0 | 0.00 | 0.00 | 0.00 | 84 | 1042.5 |
| 20260830191548 | 77 | 146 | 0.0 | 1.0 | 0.00 | 0.00 | 0.00 | 84 | 1042.5 |
| 20260830191044 | 77 | 149 | 0.0 | 1.0 | 0.00 | 0.00 | 0.00 | 85 | 1042.4 |
| 20260830190539 | 77 | 146 | 0.0 | 1.0 | 0.00 | 0.00 | 0.00 | 83 | 1042.6 |
| 20260830190034 | 77 | 159 | 1.0 | 2.0 | 0.00 | 0.00 | 0.00 | 84 | 1042.4 |
| 20260830185528 | 76 | 154 | 3.0 | 5.0 | 0.00 | 0.00 | 0.00 | 84 | 1042.4 |
| 20260830185024 | 76 | 167 | 1.0 | 2.0 | 0.00 | 0.00 | 0.00 | 84 | 1042.4 |
| 20260830184522 | 76 | 155 | 1.0 | 2.0 | 0.00 | 0.00 | 0.00 | 84 | 1042.7 |
| 20260830184011 | 76 | 177 | 1.0 | 6.0 | 0.00 | 0.00 | 0.00 | 83 | 1042.6 |
| 20260830183506 | 77 | 147 | 1.0 | 2.0 | 0.00 | 0.00 | 0.00 | 83 | 1042.7 |
| 20260830183002 | 77 | 145 | 1.0 | 1.0 | 0.00 | 0.00 | 0.00 | 83 | 1042.6 |
| 20260830182457 | 78 | 52 | 1.0 | 5.0 | 0.00 | 0.00 | 0.00 | 82 | 1042.8 |
| 20260830181953 | 78 | 184 | 1.0 | 1.0 | 0.00 | 0.00 | 0.00 | 81 | 1042.7 |
| 20260830181449 | 79 | 23 | 1.0 | 5.0 | 0.00 | 0.00 | 0.00 | 79 | 1042.5 |
| 20260830180943 | 80 | 156 | 0.0 | 5.0 | 0.00 | 0.00 | 0.00 | 79 | 1042.3 |
| 20260830180442 | 80 | 174 | 0.0 | 6.0 | 0.00 | 0.00 | 0.00 | 79 | 1042.4 |
| 20260830175941 | 78 | 166 | 1.0 | 2.0 | 0.00 | 0.00 | 0.00 | 79 | 1042.4 |
| 20260830175435 | 77 | 164 | 1.0 | 5.0 | 0.00 | 0.00 | 0.00 | 82 | 1042.6 |
| 20260830174930 | 77 | 146 | 1.0 | 3.0 | 0.00 | 0.00 | 0.00 | 82 | 1042.5 |
| 20260830174426 | 77 | 167 | 1.0 | 3.0 | 0.00 | 0.00 | 0.00 | 81 | 1042.6 |
| 20260830173921 | 77 | 176 | 0.0 | 2.0 | 0.00 | 0.00 | 0.00 | 82 | 1042.4 |
| 20260830173417 | 77 | 167 | 2.0 | 2.0 | 0.00 | 0.00 | 0.00 | 82 | 1042.4 |
| 20260830172912 | 77 | 155 | 1.0 | 2.0 | 0.00 | 0.00 | 0.00 | 82 | 1042.6 |
| 20260830172409 | 77 | 175 | 2.0 | 3.0 | 0.00 | 0.00 | 0.00 | 82 | 1042.3 |
| 20260830171904 | 76 | 174 | 1.0 | 2.0 | 0.00 | 0.00 | 0.00 | 83 | 1042.3 |
| 20260830171359 | 76 | 155 | 2.0 | 6.0 | 0.00 | 0.00 | 0.00 | 83 | 1042.2 |
| 20260830170854 | 76 | 156 | 2.0 | 8.0 | 0.00 | 0.00 | 0.00 | 83 | 1042.0 |
| 20260830170353 | 75 | 174 | 2.0 | 5.0 | 0.00 | 0.00 | 0.00 | 83 | 1042.1 |
| 20260830165852 | 75 | 201 | 2.0 | 5.0 | 0.00 | 0.00 | 0.00 | 84 | 1042.2 |
| 20260830165348 | 75 | 124 | 1.0 | 2.0 | 0.00 | 0.00 | 0.00 | 84 | 1042.2 |
| 20260830164844 | 75 | 148 | 1.0 | 1.0 | 0.00 | 0.00 | 0.00 | 84 | 1042.1 |
| 20260830164340 | 76 | 180 | 3.0 | 8.0 | 0.00 | 0.00 | 0.00 | 82 | 1042.2 |
| 20260830163836 | 77 | 53 | 3.0 | 3.0 | 0.00 | 0.00 | 0.00 | 83 | 1042.5 |
| 20260830163331 | 76 | 128 | 0.0 | 5.0 | 0.00 | 0.00 | 0.00 | 83 | 1042.2 |
| 20260830162826 | 76 | 150 | 1.0 | 3.0 | 0.00 | 0.00 | 0.00 | 84 | 1042.5 |
| 20260830162323 | 75 | 125 | 3.0 | 3.0 | 0.00 | 0.00 | 0.00 | 85 | 1042.4 |
| 20260830161818 | 74 | 120 | 0.0 | 6.0 | 0.00 | 0.00 | 0.00 | 87 | 1042.7 |
| 20260830161316 | 73 | 139 | 1.0 | 3.0 | 0.00 | 0.00 | 0.00 | 87 | 1042.4 |
| 20260830160812 | 73 | 194 | 3.0 | 3.0 | 0.00 | 0.00 | 0.00 | 87 | 1042.6 |
| 20260830160307 | 73 | 75 | 1.0 | 5.0 | 0.00 | 0.00 | 0.00 | 88 | 1042.7 |
| 20260830155803 | 73 | 99 | 5.0 | 6.0 | 0.00 | 0.00 | 0.00 | 88 | 1042.3 |
| 20260830155259 | 73 | 132 | 4.0 | 6.0 | 0.00 | 0.00 | 0.00 | 87 | 1042.0 |
| 20260830154759 | 73 | 172 | 4.0 | 7.0 | 0.00 | 0.00 | 0.00 | 88 | 1042.2 |
| 20260830154255 | 72 | 48 | 1.0 | 3.0 | 0.00 | 0.00 | 0.00 | 89 | 1042.3 |
| 20260830153751 | 72 | 121 | 2.0 | 3.0 | 0.00 | 0.00 | 0.00 | 90 | 1042.2 |
| 20260830153247 | 72 | 113 | 3.0 | 6.0 | 0.00 | 0.00 | 0.00 | 90 | 1042.8 |
| 20260830152745 | 72 | 53 | 2.0 | 6.0 | 0.00 | 0.00 | 0.00 | 89 | 1042.6 |
| 20260830152240 | 72 | 109 | 3.0 | 5.0 | 0.00 | 0.00 | 0.00 | 89 | 1042.6 |
| 20260830151739 | 71 | 154 | 2.0 | 2.0 | 0.00 | 0.00 | 0.00 | 91 | 1042.6 |
| 20260830151239 | 71 | 40 | 2.0 | 2.0 | 0.00 | 0.00 | 0.00 | 91 | 1042.8 |
| 20260830150734 | 70 | 81 | 1.0 | 2.0 | 0.00 | 0.00 | 0.00 | 92 | 1042.6 |
| 20260830150233 | 71 | 158 | 1.0 | 3.0 | 0.00 | 0.00 | 0.00 | 91 | 1042.5 |
| 20260830145728 | 71 | 134 | 0.0 | 3.0 | 0.00 | 0.00 | 0.00 | 92 | 1042.5 |
| 20260830145223 | 70 | 154 | 1.0 | 5.0 | 0.00 | 0.00 | 0.00 | 92 | 1042.2 |
| 20260830144724 | 69 | 69 | 3.0 | 3.0 | 0.00 | 0.00 | 0.00 | 94 | 1042.4 |
| 20260830144220 | 69 | 62 | 3.0 | 3.0 | 0.00 | 0.00 | 0.00 | 96 | 1042.4 |
| 20260830143716 | 68 | 112 | 1.0 | 1.0 | 0.00 | 0.00 | 0.00 | 97 | 1042.7 |
| 20260830143214 | 68 | 102 | 2.0 | 5.0 | 0.00 | 0.00 | 0.00 | 97 | 1042.5 |
| 20260830142710 | 68 | 107 | 1.0 | 2.0 | 0.00 | 0.00 | 0.00 | 99 | 1042.4 |
| 20260830142204 | 68 | 155 | 0.0 | 1.0 | 0.00 | 0.00 | 0.00 | 99 | 1041.9 |
| 20260830141659 | 67 | 108 | 0.0 | 1.0 | 0.00 | 0.00 | 0.00 | 99 | 1041.7 |
| 20260830141154 | 67 | 97 | 0.0 | 1.0 | 0.00 | 0.00 | 0.00 | 99 | 1042.1 |
| 20260830140650 | 66 | 45 | 2.0 | 5.0 | 0.00 | 0.00 | 0.00 | 99 | 1041.8 |
| 20260830140145 | 66 | 145 | 0.0 | 5.0 | 0.00 | 0.00 | 0.00 | 99 | 1041.9 |
| 20260830135640 | 66 | 102 | 1.0 | 3.0 | 0.00 | 0.00 | 0.00 | 99 | 1042.1 |
| 20260830135134 | 66 | 81 | 1.0 | 1.0 | 0.00 | 0.00 | 0.00 | 99 | 1042.6 |
| 20260830134631 | 66 | 90 | 1.0 | 1.0 | 0.00 | 0.00 | 0.00 | 99 | 1042.7 |
| 20260830134126 | 66 | 183 | 1.0 | 1.0 | 0.00 | 0.00 | 0.00 | 99 | 1042.7 |
| 20260830133621 | 66 | 80 | 1.0 | 3.0 | 0.00 | 0.00 | 0.00 | 99 | 1042.5 |
| 20260830133116 | 66 | 51 | 1.0 | 2.0 | 0.00 | 0.00 | 0.00 | 99 | 1042.4 |
| 20260830132612 | 66 | 71 | 1.0 | 2.0 | 0.00 | 0.00 | 0.00 | 99 | 1042.7 |
| 20260830132108 | 66 | 111 | 0.0 | 0.0 | 0.00 | 0.00 | 0.00 | 99 | 1042.7 |
| 20260830131607 | 66 | 152 | 0.0 | 1.0 | 0.00 | 0.00 | 0.00 | 99 | 1042.9 |
| 20260830131102 | 66 | 126 | 0.0 | 0.0 | 0.00 | 0.00 | 0.00 | 99 | 1042.6 |
| 20260830130556 | 66 | 166 | 0.0 | 0.0 | 0.00 | 0.00 | 0.00 | 99 | 1042.6 |
| 20260830130051 | 66 | 92 | 0.0 | 1.0 | 0.00 | 0.00 | 0.00 | 99 | 1043.0 |
| 20260830125546 | 65 | 144 | 0.0 | 2.0 | 0.00 | 0.00 | 0.00 | 99 | 1042.5 |
| 20260830125045 | 65 | 110 | 0.0 | 1.0 | 0.00 | 0.00 | 0.00 | 99 | 1042.4 |
| 20260830124544 | 65 | 95 | 1.0 | 5.0 | 0.00 | 0.00 | 0.00 | 99 | 1042.3 |
| 20260830124040 | 65 | 102 | 1.0 | 2.0 | 0.00 | 0.00 | 0.00 | 99 | 1042.2 |
| 20260830123537 | 65 | 75 | 1.0 | 2.0 | 0.00 | 0.00 | 0.00 | 99 | 1042.3 |
| 20260830123032 | 64 | 108 | 0.0 | 1.0 | 0.00 | 0.00 | 0.00 | 99 | 1042.1 |
| 20260830122528 | 64 | 77 | 1.0 | 2.0 | 0.00 | 0.00 | 0.00 | 99 | 1042.3 |
| 20260830122024 | 64 | 119 | 1.0 | 2.0 | 0.00 | 0.00 | 0.00 | 99 | 1042.6 |
| 20260830121520 | 64 | 110 | 0.0 | 1.0 | 0.00 | 0.00 | 0.00 | 99 | 1042.7 |
| 20260830121019 | 64 | 110 | 1.0 | 1.0 | 0.00 | 0.00 | 0.00 | 99 | 1042.5 |
| 20260830120514 | 64 | 121 | 0.0 | 0.0 | 0.00 | 0.00 | 0.00 | 99 | 1042.8 |
| 20260830120011 | 64 | 84 | 1.0 | 1.0 | 0.00 | 0.00 | 0.00 | 99 | 1042.6 |
| 20260830115507 | 64 | 126 | 0.0 | 0.0 | 0.00 | 0.00 | 0.00 | 99 | 1042.6 |
| 20260830115002 | 64 | 126 | 0.0 | 0.0 | 0.00 | 0.00 | 0.00 | 99 | 1042.3 |
| 20260830114459 | 64 | 126 | 0.0 | 0.0 | 0.00 | 0.00 | 0.00 | 99 | 1042.3 |
| 20260830113958 | 64 | 112 | 0.0 | 0.0 | 0.00 | 0.00 | 0.00 | 99 | 1042.2 |
| 20260830113453 | 64 | 120 | 0.0 | 1.0 | 0.00 | 0.00 | 0.00 | 99 | 1042.2 |
| 20260830112948 | 64 | 126 | 0.0 | 0.0 | 0.00 | 0.00 | 0.00 | 99 | 1042.1 |
| 20260830112444 | 64 | 87 | 2.0 | 2.0 | 0.00 | 0.00 | 0.00 | 99 | 1042.0 |
| 20260830111941 | 64 | 120 | 0.0 | 0.0 | 0.00 | 0.00 | 0.00 | 99 | 1042.1 |
| 20260830111436 | 64 | 121 | 0.0 | 0.0 | 0.00 | 0.00 | 0.00 | 99 | 1042.1 |
| 20260830110931 | 64 | 121 | 0.0 | 0.0 | 0.00 | 0.00 | 0.00 | 99 | 1042.3 |
| 20260830110427 | 64 | 120 | 0.0 | 1.0 | 0.00 | 0.00 | 0.00 | 99 | 1042.1 |
| 20260830105926 | 64 | 121 | 0.0 | 0.0 | 0.00 | 0.00 | 0.00 | 99 | 1042.2 |
| 20260830105422 | 64 | 148 | 0.0 | 0.0 | 0.00 | 0.00 | 0.00 | 99 | 1042.3 |
| 20260830104919 | 64 | 132 | 0.0 | 0.0 | 0.00 | 0.00 | 0.00 | 99 | 1041.7 |
| 20260830104415 | 64 | 124 | 0.0 | 0.0 | 0.00 | 0.00 | 0.00 | 99 | 1041.7 |
| 20260830103914 | 64 | 93 | 0.0 | 0.0 | 0.00 | 0.00 | 0.00 | 99 | 1041.9 |
| 20260830103410 | 64 | 116 | 0.0 | 1.0 | 0.00 | 0.00 | 0.00 | 99 | 1041.9 |
| 20260830102908 | 64 | 117 | 0.0 | 2.0 | 0.00 | 0.00 | 0.00 | 99 | 1041.6 |
| 20260830102404 | 64 | 126 | 1.0 | 2.0 | 0.00 | 0.00 | 0.00 | 99 | 1041.7 |
| 20260830101900 | 64 | 101 | 0.0 | 0.0 | 0.00 | 0.00 | 0.00 | 99 | 1042.1 |
| 20260830101355 | 64 | 114 | 0.0 | 0.0 | 0.00 | 0.00 | 0.00 | 99 | 1041.9 |
| 20260830100854 | 64 | 114 | 0.0 | 0.0 | 0.00 | 0.00 | 0.00 | 99 | 1041.8 |
| 20260830100353 | 64 | 114 | 0.0 | 0.0 | 0.00 | 0.00 | 0.00 | 99 | 1042.1 |
| 20260830095852 | 64 | 115 | 0.0 | 0.0 | 0.00 | 0.00 | 0.00 | 99 | 1041.9 |
| 20260830095348 | 64 | 115 | 0.0 | 0.0 | 0.00 | 0.00 | 0.00 | 99 | 1041.9 |
| 20260830094844 | 64 | 115 | 0.0 | 0.0 | 0.00 | 0.00 | 0.00 | 99 | 1042.0 |
| 20260830094341 | 64 | 115 | 0.0 | 0.0 | 0.00 | 0.00 | 0.00 | 99 | 1042.0 |
| 20260830093836 | 64 | 113 | 0.0 | 0.0 | 0.00 | 0.00 | 0.00 | 99 | 1042.0 |
| 20260830093331 | 64 | 101 | 0.0 | 0.0 | 0.00 | 0.00 | 0.00 | 99 | 1042.2 |
| 20260830092826 | 64 | 115 | 0.0 | 0.0 | 0.00 | 0.00 | 0.00 | 99 | 1042.1 |
| 20260830092322 | 64 | 117 | 0.0 | 0.0 | 0.00 | 0.00 | 0.00 | 99 | 1041.8 |
| 20260830091819 | 64 | 116 | 0.0 | 0.0 | 0.00 | 0.00 | 0.00 | 99 | 1041.8 |
| 20260830091318 | 64 | 120 | 0.0 | 0.0 | 0.00 | 0.00 | 0.00 | 99 | 1042.0 |
| 20260830090817 | 64 | 147 | 0.0 | 0.0 | 0.00 | 0.00 | 0.00 | 99 | 1041.9 |
| 20260830090313 | 64 | 154 | 0.0 | 0.0 | 0.00 | 0.00 | 0.00 | 99 | 1041.5 |
| 20260830085812 | 64 | 168 | 0.0 | 0.0 | 0.00 | 0.00 | 0.00 | 99 | 1041.5 |
| 20260830085308 | 64 | 120 | 0.0 | 0.0 | 0.00 | 0.00 | 0.00 | 99 | 1041.6 |
| 20260830084803 | 64 | 119 | 0.0 | 0.0 | 0.00 | 0.00 | 0.00 | 99 | 1041.5 |
| 20260830084259 | 64 | 119 | 0.0 | 0.0 | 0.00 | 0.00 | 0.00 | 99 | 1041.7 |
| 20260830083754 | 64 | 119 | 0.0 | 0.0 | 0.00 | 0.00 | 0.00 | 99 | 1042.0 |
| 20260830083250 | 64 | 119 | 0.0 | 0.0 | 0.00 | 0.00 | 0.00 | 99 | 1042.0 |
| 20260830082749 | 64 | 121 | 0.0 | 0.0 | 0.00 | 0.00 | 0.00 | 99 | 1041.9 |
| 20260830082245 | 64 | 122 | 0.0 | 0.0 | 0.00 | 0.00 | 0.00 | 99 | 1041.7 |
| 20260830081739 | 64 | 122 | 0.0 | 0.0 | 0.00 | 0.00 | 0.00 | 99 | 1041.7 |
| 20260830081234 | 64 | 121 | 0.0 | 0.0 | 0.00 | 0.00 | 0.00 | 99 | 1042.0 |
| 20260830080728 | 65 | 121 | 0.0 | 0.0 | 0.00 | 0.00 | 0.00 | 99 | 1042.0 |
| 20260830080224 | 65 | 121 | 0.0 | 1.0 | 0.00 | 0.00 | 0.00 | 99 | 1042.2 |
| 20260830075723 | 65 | 121 | 0.0 | 0.0 | 0.00 | 0.00 | 0.00 | 99 | 1041.8 |
| 20260830075219 | 65 | 121 | 0.0 | 0.0 | 0.00 | 0.00 | 0.00 | 99 | 1042.0 |
| 20260830074714 | 65 | 121 | 0.0 | 0.0 | 0.00 | 0.00 | 0.00 | 99 | 1042.0 |
| 20260830074210 | 65 | 121 | 0.0 | 0.0 | 0.00 | 0.00 | 0.00 | 99 | 1042.1 |
| 20260830073706 | 65 | 121 | 0.0 | 0.0 | 0.00 | 0.00 | 0.00 | 99 | 1042.3 |
| 20260830073202 | 65 | 121 | 0.0 | 0.0 | 0.00 | 0.00 | 0.00 | 99 | 1042.1 |
| 20260830072701 | 65 | 136 | 0.0 | 0.0 | 0.00 | 0.00 | 0.00 | 99 | 1042.2 |
| 20260830072156 | 65 | 135 | 0.0 | 1.0 | 0.00 | 0.00 | 0.00 | 99 | 1042.1 |
| 20260830071651 | 65 | 129 | 0.0 | 0.0 | 0.00 | 0.00 | 0.00 | 99 | 1042.2 |
| 20260830071150 | 65 | 158 | 0.0 | 0.0 | 0.00 | 0.00 | 0.00 | 99 | 1042.3 |
| 20260830070645 | 65 | 153 | 0.0 | 0.0 | 0.00 | 0.00 | 0.00 | 99 | 1042.2 |
| 20260830070140 | 65 | 128 | 0.0 | 0.0 | 0.00 | 0.00 | 0.00 | 99 | 1042.1 |
| 20260830065638 | 66 | 120 | 0.0 | 1.0 | 0.00 | 0.00 | 0.00 | 99 | 1042.3 |
| 20260830065137 | 66 | 116 | 0.0 | 0.0 | 0.00 | 0.00 | 0.00 | 99 | 1042.2 |
| 20260830064637 | 66 | 148 | 0.0 | 0.0 | 0.00 | 0.00 | 0.00 | 99 | 1042.5 |
| 20260830064133 | 66 | 138 | 0.0 | 0.0 | 0.00 | 0.00 | 0.00 | 99 | 1042.6 |
| 20260830063632 | 66 | 112 | 0.0 | 0.0 | 0.00 | 0.00 | 0.00 | 99 | 1042.5 |
| 20260830063131 | 66 | 109 | 0.0 | 1.0 | 0.00 | 0.00 | 0.00 | 99 | 1042.6 |
| 20260830062626 | 66 | 89 | 0.0 | 1.0 | 0.00 | 0.00 | 0.00 | 99 | 1042.5 |
| 20260830062121 | 66 | 75 | 1.0 | 1.0 | 0.00 | 0.00 | 0.00 | 99 | 1042.4 |
| 20260830061615 | 66 | 110 | 0.0 | 1.0 | 0.00 | 0.00 | 0.00 | 99 | 1042.7 |
| 20260830061112 | 66 | 130 | 0.0 | 2.0 | 0.00 | 0.00 | 0.00 | 99 | 1042.9 |
| 20260830060608 | 66 | 110 | 0.0 | 1.0 | 0.00 | 0.00 | 0.00 | 99 | 1042.7 |
| 20260830060105 | 66 | 112 | 0.0 | 1.0 | 0.00 | 0.00 | 0.00 | 99 | 1042.8 |
| 20260830055559 | 66 | 117 | 0.0 | 0.0 | 0.00 | 0.00 | 0.00 | 99 | 1042.8 |
| 20260830055055 | 66 | 125 | 0.0 | 1.0 | 0.00 | 0.00 | 0.00 | 99 | 1043.0 |
| 20260830054550 | 66 | 119 | 0.0 | 0.0 | 0.00 | 0.00 | 0.00 | 99 | 1043.0 |
| 20260830054045 | 66 | 119 | 0.0 | 0.0 | 0.00 | 0.00 | 0.00 | 99 | 1043.0 |
| 20260830053541 | 66 | 120 | 0.0 | 0.0 | 0.00 | 0.00 | 0.00 | 99 | 1043.0 |
| 20260830053035 | 66 | 122 | 0.0 | 0.0 | 0.00 | 0.00 | 0.00 | 99 | 1043.0 |
| 20260830052531 | 66 | 122 | 0.0 | 0.0 | 0.00 | 0.00 | 0.00 | 99 | 1043.1 |
| 20260830052030 | 66 | 122 | 0.0 | 0.0 | 0.00 | 0.00 | 0.00 | 99 | 1043.4 |
| 20260830051525 | 66 | 122 | 0.0 | 0.0 | 0.00 | 0.00 | 0.00 | 99 | 1043.2 |
| 20260830051020 | 66 | 122 | 0.0 | 0.0 | 0.00 | 0.00 | 0.00 | 99 | 1043.1 |
| 20260830050515 | 66 | 140 | 0.0 | 0.0 | 0.00 | 0.00 | 0.00 | 98 | 1043.2 |
| 20260830050014 | 67 | 105 | 0.0 | 0.0 | 0.00 | 0.00 | 0.00 | 98 | 1043.1 |
| 20260830045513 | 67 | 105 | 0.0 | 1.0 | 0.00 | 1.29 | 1.29 | 98 | 1043.2 |
| 20260830045008 | 67 | 105 | 0.0 | 0.0 | 0.00 | 1.29 | 1.29 | 98 | 1043.2 |
| 20260830044457 | 67 | 144 | 0.0 | 0.0 | 0.00 | 1.29 | 1.29 | 98 | 1043.3 |
| 20260830043952 | 67 | 144 | 0.0 | 0.0 | 0.00 | 1.29 | 1.29 | 98 | 1042.9 |
| 20260830043447 | 67 | 136 | 0.0 | 0.0 | 0.00 | 1.29 | 1.29 | 97 | 1043.1 |
| 20260830042945 | 67 | 135 | 0.0 | 0.0 | 0.00 | 1.29 | 1.29 | 97 | 1043.2 |
| 20260830042439 | 67 | 135 | 0.0 | 0.0 | 0.00 | 1.29 | 1.29 | 97 | 1043.2 |
| 20260830041939 | 68 | 135 | 0.0 | 0.0 | 0.00 | 1.29 | 1.29 | 97 | 1043.3 |
| 20260830041438 | 68 | 105 | 0.0 | 0.0 | 0.00 | 1.29 | 1.29 | 97 | 1043.2 |
| 20260830040933 | 68 | 105 | 0.0 | 0.0 | 0.00 | 1.29 | 1.29 | 97 | 1043.3 |
| 20260830040429 | 68 | 105 | 0.0 | 0.0 | 0.00 | 1.29 | 1.29 | 97 | 1043.2 |
| 20260830035928 | 68 | 105 | 0.0 | 0.0 | 0.00 | 1.29 | 1.29 | 97 | 1043.3 |
| 20260830035427 | 68 | 105 | 0.0 | 1.0 | 0.00 | 1.29 | 1.29 | 96 | 1043.3 |
| 20260830034922 | 68 | 106 | 0.0 | 1.0 | 0.00 | 1.29 | 1.29 | 96 | 1043.5 |
| 20260830034418 | 68 | 106 | 0.0 | 1.0 | 0.00 | 1.29 | 1.29 | 96 | 1043.3 |
| 20260830033912 | 68 | 105 | 0.0 | 1.0 | 0.00 | 1.29 | 1.29 | 96 | 1043.4 |
| 20260830033408 | 68 | 107 | 0.0 | 1.0 | 0.00 | 1.29 | 1.29 | 95 | 1043.5 |
| 20260830032903 | 68 | 120 | 0.0 | 0.0 | 0.00 | 1.29 | 1.29 | 95 | 1043.9 |
| 20260830032402 | 68 | 109 | 0.0 | 1.0 | 0.00 | 1.29 | 1.29 | 95 | 1043.5 |
| 20260830031857 | 68 | 120 | 0.0 | 1.0 | 0.00 | 1.29 | 1.29 | 95 | 1043.4 |
| 20260830031353 | 68 | 101 | 1.0 | 1.0 | 0.00 | 1.29 | 1.29 | 95 | 1043.5 |
| 20260830030848 | 68 | 126 | 0.0 | 0.0 | 0.00 | 1.29 | 1.29 | 95 | 1043.2 |
| 20260830030343 | 68 | 146 | 0.0 | 1.0 | 0.00 | 1.29 | 1.29 | 95 | 1043.2 |
| 20260830025843 | 68 | 191 | 2.0 | 2.0 | 0.00 | 1.29 | 1.29 | 95 | 1043.3 |
| 20260830025342 | 68 | 158 | 0.0 | 1.0 | 0.00 | 1.29 | 1.29 | 94 | 1043.3 |
| 20260830024836 | 69 | 185 | 0.0 | 2.0 | 0.00 | 1.29 | 1.29 | 94 | 1042.8 |
| 20260830024332 | 69 | 137 | 0.0 | 3.0 | 0.00 | 1.29 | 1.29 | 94 | 1043.1 |
| 20260830023829 | 69 | 122 | 0.0 | 0.0 | 0.00 | 1.29 | 1.29 | 94 | 1043.1 |
| 20260830023328 | 69 | 157 | 0.0 | 2.0 | 0.00 | 1.29 | 1.29 | 94 | 1043.3 |
| 20260830022827 | 69 | 137 | 0.0 | 1.0 | 0.00 | 1.29 | 1.29 | 94 | 1043.0 |
| 20260830022323 | 69 | 151 | 0.0 | 1.0 | 0.00 | 1.29 | 1.29 | 94 | 1043.2 |
| 20260830021822 | 69 | 69 | 0.0 | 1.0 | 0.00 | 1.29 | 1.29 | 94 | 1042.8 |
| 20260830021318 | 69 | 155 | 0.0 | 1.0 | 0.00 | 1.29 | 1.29 | 94 | 1043.1 |
| 20260830020817 | 69 | 135 | 0.0 | 1.0 | 0.00 | 1.29 | 1.29 | 94 | 1042.9 |
| 20260830020312 | 69 | 60 | 2.0 | 2.0 | 0.00 | 1.29 | 1.29 | 94 | 1043.1 |
| 20260830015813 | 69 | 122 | 0.0 | 2.0 | 0.00 | 1.29 | 1.29 | 94 | 1043.2 |
| 20260830015308 | 69 | 119 | 1.0 | 1.0 | 0.00 | 1.29 | 1.29 | 93 | 1042.8 |
| 20260830014803 | 69 | 122 | 1.0 | 3.0 | 0.00 | 1.29 | 1.29 | 93 | 1043.0 |
| 20260830014259 | 69 | 122 | 0.0 | 0.0 | 0.00 | 1.29 | 1.29 | 93 | 1043.1 |
| 20260830013755 | 69 | 141 | 0.0 | 0.0 | 0.00 | 1.29 | 1.29 | 93 | 1042.9 |
| 20260830013249 | 69 | 109 | 0.0 | 3.0 | 0.00 | 1.29 | 1.29 | 93 | 1043.0 |
| 20260830012744 | 70 | 105 | 0.0 | 1.0 | 0.00 | 1.29 | 1.29 | 93 | 1043.2 |
| 20260830012240 | 70 | 142 | 1.0 | 3.0 | 0.00 | 1.29 | 1.29 | 92 | 1042.9 |
| 20260830011736 | 70 | 138 | 0.0 | 1.0 | 0.00 | 1.29 | 1.29 | 92 | 1042.7 |